EW0435 Weather Reports


Display with metric or nautical units.
time (UTC)temp
F
wind
direction
speed
MPH
gust
MPH
rain 1hr
in
rain 24hr
in
rain mn
in
humidity
%
barometer
mb
20260507070504 56 319 0.0 1.0 0.00 0.00 0.00 60 1018.5
20260507070009 56 312 0.0 2.0 0.00 0.00 0.00 59 1018.4
20260507065504 57 313 0.0 2.0 0.00 0.00 0.00 58 1018.4
20260507065004 57 311 0.0 1.0 0.00 0.00 0.00 58 1018.4
20260507064504 57 319 0.0 2.0 0.00 0.00 0.00 58 1018.4
20260507064004 57 315 0.0 2.0 0.00 0.00 0.00 58 1018.4
20260507063003 57 310 0.0 1.0 0.00 0.00 0.00 58 1018.4
20260507062503 57 307 0.0 0.0 0.00 0.00 0.00 60 1018.4
20260507062004 57 302 0.0 1.0 0.00 0.00 0.00 60 1018.4
20260507061504 57 302 0.0 0.0 0.00 0.00 0.00 60 1018.4
20260507061003 58 284 0.0 1.0 0.00 0.00 0.00 58 1018.4
20260507060503 58 269 0.0 1.0 0.00 0.00 0.00 56 1018.4
20260507055504 60 300 0.0 0.0 0.00 0.00 0.00 52 1018.4
20260507055004 60 298 0.0 0.0 0.00 0.00 0.00 51 1018.4
20260507054504 60 301 0.0 1.0 0.00 0.00 0.00 50 1018.4
20260507053504 61 300 0.0 2.0 0.00 0.00 0.00 49 1018.4
20260507053004 62 297 0.0 3.0 0.00 0.00 0.00 48 1018.4
20260507052504 62 283 1.0 3.0 0.00 0.00 0.00 48 1018.5
20260507052003 61 287 1.0 3.0 0.00 0.00 0.00 48 1018.5
20260507051004 61 287 1.0 2.0 0.00 0.00 0.00 50 1018.4
20260507050504 61 280 0.0 3.0 0.00 0.00 0.00 50 1018.4
20260507050004 61 282 0.0 2.0 0.00 0.00 0.00 50 1018.5
20260507045503 61 272 1.0 2.0 0.00 0.00 0.00 51 1018.5
20260507044503 62 271 0.0 2.0 0.00 0.00 0.00 52 1018.5
20260507044004 62 273 1.0 2.0 0.00 0.00 0.00 52 1018.5
20260507043504 62 281 0.0 1.0 0.00 0.00 0.00 52 1018.5
20260507043004 62 273 0.0 2.0 0.00 0.00 0.00 51 1018.6
20260507042504 63 281 0.0 2.0 0.00 0.00 0.00 49 1018.6
20260507042004 63 293 0.0 1.0 0.00 0.00 0.00 48 1018.5
20260507041504 63 280 0.0 3.0 0.00 0.00 0.00 48 1018.5
20260507040504 63 263 0.0 0.0 0.00 0.00 0.00 49 1018.5
20260507040004 63 271 0.0 0.0 0.00 0.00 0.00 48 1018.5
20260507035504 63 273 0.0 1.0 0.00 0.00 0.00 47 1018.5
20260507034503 63 275 0.0 0.0 0.00 0.00 0.00 48 1018.5
20260507034004 63 279 0.0 0.0 0.00 0.00 0.00 48 1018.4
20260507033503 63 275 0.0 0.0 0.00 0.00 0.00 48 1018.3
20260507033004 63 282 0.0 0.0 0.00 0.00 0.00 48 1018.4
20260507032504 63 282 0.0 0.0 0.00 0.00 0.00 48 1018.4
20260507032004 63 293 0.0 0.0 0.00 0.00 0.00 47 1018.3
20260507031503 63 294 0.0 0.0 0.00 0.00 0.00 46 1018.3
20260507031003 63 294 0.0 0.0 0.00 0.00 0.00 45 1018.3
20260507030503 64 294 0.0 0.0 0.00 0.00 0.00 43 1018.3
20260507030003 64 294 0.0 0.0 0.00 0.00 0.00 43 1018.3
20260507025503 63 293 0.0 0.0 0.00 0.00 0.00 44 1018.3
20260507025004 63 317 0.0 0.0 0.00 0.00 0.00 47 1018.3
20260507024503 63 317 0.0 0.0 0.00 0.00 0.00 48 1018.3
20260507024003 63 315 0.0 0.0 0.00 0.00 0.00 48 1018.3
20260507023504 63 317 0.0 0.0 0.00 0.00 0.00 49 1018.3
20260507023004 63 317 0.0 0.0 0.00 0.00 0.00 50 1018.4
20260507022004 63 320 0.0 0.0 0.00 0.00 0.00 53 1018.4
20260507021504 63 321 0.0 0.0 0.00 0.00 0.00 55 1018.4
20260507021004 63 320 0.0 0.0 0.00 0.00 0.00 59 1018.4
20260507020503 63 319 0.0 0.0 0.00 0.00 0.00 59 1018.4
20260507020004 63 308 0.0 0.0 0.00 0.00 0.00 59 1018.4
20260507015504 64 311 0.0 0.0 0.00 0.00 0.00 58 1018.4
20260507015004 64 317 0.0 0.0 0.00 0.00 0.00 58 1018.4
20260507014503 64 317 0.0 0.0 0.00 0.00 0.00 57 1018.4
20260507014003 65 315 0.0 0.0 0.00 0.00 0.00 56 1018.4
20260507013504 65 319 0.0 0.0 0.00 0.00 0.00 55 1018.4
20260507013004 65 338 0.0 0.0 0.00 0.00 0.00 54 1018.3
20260507012504 66 339 0.0 0.0 0.00 0.00 0.00 54 1018.3
20260507012003 66 341 0.0 1.0 0.00 0.00 0.00 52 1018.3
20260507011503 66 334 0.0 1.0 0.00 0.00 0.00 52 1018.3
20260507011004 67 339 0.0 1.0 0.00 0.00 0.00 52 1018.3
20260507010504 67 338 0.0 0.0 0.00 0.00 0.00 53 1018.3
20260507010004 67 338 0.0 0.0 0.00 0.00 0.00 52 1018.3
20260507005503 68 336 0.0 1.0 0.00 0.00 0.00 51 1018.3
20260507005004 68 328 0.0 2.0 0.00 0.00 0.00 51 1018.3
20260507004503 69 322 0.0 6.0 0.00 0.00 0.00 51 1018.3
20260507004003 69 338 0.0 5.0 0.00 0.00 0.00 50 1018.3
20260507003503 70 336 0.0 2.0 0.00 0.00 0.00 49 1018.4
20260507003004 70 323 0.0 2.0 0.00 0.00 0.00 49 1018.4
20260507002503 70 315 0.0 2.0 0.00 0.00 0.00 51 1018.4
20260507002003 70 323 0.0 2.0 0.00 0.00 0.00 52 1018.4
20260507001503 70 320 0.0 3.0 0.00 0.00 0.00 51 1018.3
20260507000004 69 335 0.0 1.0 0.00 0.00 0.00 51 1018.2
20260506235503 69 309 0.0 1.0 0.00 0.00 0.00 49 1018.2
20260506235004 70 314 0.0 2.0 0.00 0.00 0.00 49 1018.2
20260506234504 70 319 0.0 2.0 0.00 0.00 0.00 47 1018.2
20260506234003 72 313 1.0 5.0 0.00 0.00 0.00 46 1018.2
20260506233504 73 319 0.0 3.0 0.00 0.00 0.00 43 1018.1
20260506232504 74 336 0.0 2.0 0.00 0.00 0.00 45 1018.0
20260506232004 73 338 0.0 1.0 0.00 0.00 0.00 47 1018.0
20260506231503 73 325 0.0 2.0 0.00 0.00 0.00 45 1018.1
20260506230503 72 337 0.0 5.0 0.00 0.00 0.00 44 1018.1
20260506230003 72 334 0.0 3.0 0.00 0.00 0.00 44 1018.2
20260506225504 71 337 1.0 5.0 0.00 0.00 0.00 46 1018.2
20260506224503 71 339 1.0 6.0 0.00 0.00 0.00 46 1018.4
20260506224004 71 341 0.0 2.0 0.00 0.00 0.00 47 1018.5
20260506223504 71 337 0.0 6.0 0.00 0.00 0.00 46 1018.6
20260506223004 71 329 0.0 2.0 0.00 0.00 0.00 45 1018.6
20260506222503 71 352 0.0 5.0 0.00 0.00 0.00 46 1018.7
20260506222004 72 340 1.0 8.0 0.00 0.00 0.00 42 1018.7
20260506221504 73 347 1.0 10.0 0.00 0.00 0.00 42 1018.7
20260506221004 74 332 0.0 3.0 0.00 0.00 0.00 41 1018.8
20260506220503 75 336 0.0 3.0 0.00 0.00 0.00 41 1018.7
20260506220004 75 343 1.0 8.0 0.00 0.00 0.00 40 1018.7
20260506215503 75 340 0.0 2.0 0.00 0.00 0.00 40 1018.8
20260506215004 75 0 1.0 5.0 0.00 0.00 0.00 41 1018.8
20260506214504 75 336 1.0 10.0 0.00 0.00 0.00 38 1018.8
20260506214004 76 348 0.0 3.0 0.00 0.00 0.00 40 1018.8
20260506213504 75 336 0.0 3.0 0.00 0.00 0.00 39 1018.9
20260506213004 75 336 0.0 2.0 0.00 0.00 0.00 40 1019.0
20260506212004 74 351 1.0 3.0 0.00 0.00 0.00 39 1018.9
20260506211503 74 341 1.0 3.0 0.00 0.00 0.00 40 1018.9
20260506211003 74 332 1.0 5.0 0.00 0.00 0.00 40 1018.9
20260506210503 74 339 0.0 8.0 0.00 0.00 0.00 40 1018.9
20260506210004 75 334 0.0 5.0 0.00 0.00 0.00 40 1019.0
20260506205004 74 311 0.0 3.0 0.00 0.00 0.00 41 1019.1
20260506204503 75 334 1.0 5.0 0.00 0.00 0.00 40 1019.1
20260506203504 74 334 0.0 3.0 0.00 0.00 0.00 42 1019.2
20260506203003 74 349 0.0 5.0 0.00 0.00 0.00 41 1019.1
20260506202504 75 352 0.0 2.0 0.00 0.00 0.00 42 1019.3
20260506202003 75 347 0.0 3.0 0.00 0.00 0.00 43 1019.2
20260506201503 74 328 0.0 2.0 0.00 0.00 0.00 42 1019.2
20260506201004 74 336 0.0 1.0 0.00 0.00 0.00 41 1019.2
20260506200504 75 331 1.0 6.0 0.00 0.00 0.00 39 1019.1
20260506195504 75 2 1.0 13.0 0.00 0.00 0.00 42 1019.2
20260506195004 75 354 0.0 6.0 0.00 0.00 0.00 40 1019.2
20260506194504 74 19 1.0 6.0 0.00 0.00 0.00 39 1019.3
20260506193504 75 354 0.0 6.0 0.00 0.00 0.00 37 1019.4
20260506192504 74 21 0.0 0.0 0.00 0.00 0.00 38 1019.5
20260506192003 75 349 1.0 5.0 0.00 0.00 0.00 39 1019.6
20260506191503 74 341 0.0 2.0 0.00 0.00 0.00 38 1019.5
20260506191004 75 343 0.0 8.0 0.00 0.00 0.00 36 1019.5
20260506190004 75 353 0.0 2.0 0.00 0.00 0.00 39 1019.6
20260506185503 74 8 0.0 1.0 0.00 0.00 0.00 41 1019.6
20260506185004 73 356 0.0 1.0 0.00 0.00 0.00 44 1019.5
20260506184504 73 6 0.0 1.0 0.00 0.00 0.00 45 1019.6
20260506183503 72 33 0.0 1.0 0.00 0.00 0.00 44 1019.8
20260506183004 72 28 0.0 1.0 0.00 0.00 0.00 42 1019.8
20260506182503 72 14 0.0 3.0 0.00 0.00 0.00 44 1019.7
20260506182004 73 38 0.0 2.0 0.00 0.00 0.00 42 1019.7
20260506181503 72 29 0.0 1.0 0.00 0.00 0.00 44 1019.7
20260506180504 73 348 0.0 0.0 0.00 0.00 0.00 42 1019.7
20260506180004 72 11 0.0 1.0 0.00 0.00 0.00 45 1019.7
20260506175004 72 27 0.0 1.0 0.00 0.00 0.00 44 1019.5
20260506174504 72 34 0.0 0.0 0.00 0.00 0.00 41 1019.5
20260506174003 72 25 0.0 1.0 0.00 0.00 0.00 41 1019.5
20260506173503 72 345 0.0 0.0 0.00 0.00 0.00 43 1019.5
20260506172504 72 336 0.0 1.0 0.00 0.00 0.00 42 1019.4
20260506171503 71 44 0.0 0.0 0.00 0.00 0.00 44 1019.5
20260506171004 70 355 0.0 0.0 0.00 0.00 0.00 40 1019.5
20260506170504 70 355 0.0 0.0 0.00 0.00 0.00 40 1019.5
20260506170004 69 333 0.0 0.0 0.00 0.00 0.00 40 1019.4
20260506165503 69 324 0.0 0.0 0.00 0.00 0.00 40 1019.4
20260506165004 69 254 0.0 0.0 0.00 0.00 0.00 41 1019.4
20260506164504 68 250 0.0 0.0 0.00 0.00 0.00 41 1019.4
20260506164004 67 250 0.0 0.0 0.00 0.00 0.00 42 1019.5
20260506163504 68 344 0.0 0.0 0.00 0.00 0.00 40 1019.6
20260506162503 65 280 0.0 0.0 0.00 0.00 0.00 43 1019.6
20260506162004 65 196 0.0 0.0 0.00 0.00 0.00 43 1019.6
20260506161504 65 210 0.0 0.0 0.00 0.00 0.00 44 1019.6
20260506161004 65 173 0.0 2.0 0.00 0.00 0.00 43 1019.6
20260506160504 65 223 0.0 0.0 0.00 0.00 0.00 44 1019.6
20260506160004 64 231 0.0 0.0 0.00 0.00 0.00 43 1019.7
20260506155004 64 228 0.0 0.0 0.00 0.00 0.00 43 1019.7
20260506154504 64 256 0.0 0.0 0.00 0.00 0.00 42 1019.7
20260506154004 64 232 0.0 1.0 0.00 0.00 0.00 43 1019.8
20260506153504 63 226 0.0 1.0 0.00 0.00 0.00 43 1019.7
20260506153005 63 219 0.0 0.0 0.00 0.00 0.00 43 1019.7
20260506152504 62 228 0.0 1.0 0.00 0.00 0.00 44 1019.7
20260506152004 62 217 1.0 3.0 0.00 0.00 0.00 44 1019.7
20260506151004 61 225 0.0 2.0 0.00 0.00 0.00 45 1019.7
20260506150505 61 235 1.0 2.0 0.00 0.00 0.00 45 1019.7
20260506150005 60 224 1.0 3.0 0.00 0.00 0.00 44 1019.8
20260506145505 60 229 1.0 6.0 0.00 0.00 0.00 44 1019.7
20260506144504 59 237 0.0 3.0 0.00 0.00 0.00 47 1019.7
20260506143504 58 232 0.0 3.0 0.00 0.00 0.00 49 1019.7
20260506143004 58 239 1.0 3.0 0.00 0.00 0.00 49 1019.7
20260506142504 57 238 0.0 3.0 0.00 0.00 0.00 51 1019.7
20260506142004 57 229 0.0 3.0 0.00 0.00 0.00 51 1019.7
20260506141504 57 228 1.0 2.0 0.00 0.00 0.00 52 1019.7
20260506140504 56 239 0.0 2.0 0.00 0.00 0.00 53 1019.7
20260506140005 55 229 0.0 2.0 0.00 0.00 0.00 54 1019.7
20260506135505 55 239 0.0 2.0 0.00 0.00 0.00 54 1019.7
20260506134504 55 227 1.0 3.0 0.00 0.00 0.00 54 1019.7
20260506134004 54 225 1.0 3.0 0.00 0.00 0.00 55 1019.7
20260506133504 54 228 1.0 2.0 0.00 0.00 0.00 55 1019.6
20260506133004 53 236 0.0 3.0 0.00 0.00 0.00 56 1019.5
20260506132504 53 242 0.0 2.0 0.00 0.00 0.00 57 1019.5
20260506132005 52 241 0.0 2.0 0.00 0.00 0.00 58 1019.5
20260506131504 52 238 1.0 5.0 0.00 0.00 0.00 58 1019.4
20260506131004 52 236 0.0 3.0 0.00 0.00 0.00 59 1019.4
20260506130504 51 222 0.0 3.0 0.00 0.00 0.00 60 1019.3
20260506130005 50 230 0.0 2.0 0.00 0.00 0.00 62 1019.3
20260506125503 50 227 0.0 0.0 0.00 0.00 0.00 62 1019.3
20260506125004 50 212 0.0 1.0 0.00 0.00 0.00 61 1019.2
20260506124503 50 221 0.0 0.0 0.00 0.00 0.00 60 1019.3
20260506124004 50 213 0.0 0.0 0.00 0.00 0.00 61 1019.2
20260506123504 48 232 0.0 0.0 0.00 0.00 0.00 64 1019.2
20260506123004 47 173 0.0 0.0 0.00 0.00 0.00 65 1019.2
20260506122503 47 172 0.0 0.0 0.00 0.00 0.00 66 1019.2
20260506122004 47 173 0.0 0.0 0.00 0.00 0.00 66 1019.2
20260506121504 46 173 0.0 0.0 0.00 0.00 0.00 66 1019.2
20260506120504 47 173 0.0 0.0 0.00 0.00 0.00 65 1019.1
20260506120004 46 173 0.0 0.0 0.00 0.00 0.00 65 1019.2
20260506115504 47 172 0.0 0.0 0.00 0.00 0.00 64 1019.1
20260506115004 47 172 0.0 0.0 0.00 0.00 0.00 64 1019.1
20260506114505 47 173 0.0 0.0 0.00 0.00 0.00 64 1019.1
20260506114004 46 173 0.0 0.0 0.00 0.00 0.00 65 1019.1
20260506113504 46 174 0.0 0.0 0.00 0.00 0.00 65 1019.2
20260506113004 46 173 0.0 0.0 0.00 0.00 0.00 66 1019.2
20260506112005 45 175 0.0 0.0 0.00 0.00 0.00 67 1019.2
20260506111504 44 174 0.0 0.0 0.00 0.00 0.00 68 1019.2
20260506111004 44 174 0.0 0.0 0.00 0.00 0.00 68 1019.2
20260506110504 43 168 0.0 0.0 0.00 0.00 0.00 70 1019.1
20260506110004 43 167 0.0 0.0 0.00 0.00 0.00 71 1019.1
20260506105504 43 167 0.0 0.0 0.00 0.00 0.00 70 1019.1
20260506105004 43 170 0.0 0.0 0.00 0.00 0.00 71 1019.2
20260506104503 43 180 0.0 0.0 0.00 0.00 0.00 69 1019.1
20260506104004 44 180 0.0 0.0 0.00 0.00 0.00 68 1019.1
20260506103504 44 193 0.0 0.0 0.00 0.00 0.00 66 1019.1
20260506103004 45 194 0.0 0.0 0.00 0.00 0.00 65 1019.1
20260506102004 44 194 0.0 0.0 0.00 0.00 0.00 66 1019.0
20260506101504 45 194 0.0 0.0 0.00 0.00 0.00 65 1018.9
20260506101004 45 194 0.0 0.0 0.00 0.00 0.00 63 1018.9
20260506100005 47 194 0.0 0.0 0.00 0.00 0.00 60 1019.0
20260506095503 47 194 0.0 0.0 0.00 0.00 0.00 60 1019.0
20260506095003 46 194 0.0 0.0 0.00 0.00 0.00 61 1019.0
20260506094504 45 194 0.0 0.0 0.00 0.00 0.00 63 1019.0
20260506094004 45 194 0.0 0.0 0.00 0.00 0.00 64 1019.0
20260506093504 45 194 0.0 0.0 0.00 0.00 0.00 64 1019.0
20260506093005 45 194 0.0 0.0 0.00 0.00 0.00 64 1019.0
20260506092504 45 194 0.0 0.0 0.00 0.00 0.00 65 1018.9
20260506092004 46 212 0.0 0.0 0.00 0.00 0.00 62 1018.9
20260506091504 48 261 0.0 0.0 0.00 0.00 0.00 58 1018.9
20260506091004 49 261 0.0 0.0 0.00 0.00 0.00 56 1018.9
20260506090504 49 261 0.0 0.0 0.00 0.00 0.00 55 1018.9
20260506090004 51 261 0.0 0.0 0.00 0.00 0.00 52 1018.9
20260506085504 52 261 0.0 0.0 0.00 0.00 0.00 50 1019.0
20260506085004 52 261 0.0 0.0 0.00 0.00 0.00 48 1019.0
20260506084504 52 261 0.0 0.0 0.00 0.00 0.00 49 1019.0
20260506084004 51 261 0.0 0.0 0.00 0.00 0.00 50 1018.9
20260506083504 51 261 0.0 0.0 0.00 0.00 0.00 52 1018.9
20260506083004 51 261 0.0 0.0 0.00 0.00 0.00 51 1018.9
20260506082504 51 261 0.0 0.0 0.00 0.00 0.00 51 1018.9
20260506082005 50 261 0.0 0.0 0.00 0.00 0.00 53 1018.8
20260506081504 50 261 0.0 0.0 0.00 0.00 0.00 54 1018.8
20260506081005 53 261 0.0 0.0 0.00 0.00 0.00 51 1018.8
20260506080504 54 259 0.0 0.0 0.00 0.00 0.00 45 1018.7
20260506073504 52 259 0.0 0.0 0.00 0.00 0.00 52 1018.8
20260506073004 51 259 0.0 0.0 0.00 0.00 0.00 52 1018.7
20260506072505 51 259 0.0 0.0 0.00 0.00 0.00 53 1018.8
20260506072003 51 259 0.0 0.0 0.00 0.00 0.00 52 1018.7
20260506071504 52 259 0.0 0.0 0.00 0.00 0.00 52 1018.7
20260506071004 52 259 0.0 0.0 0.00 0.00 0.00 51 1018.7